TAP1034 LPPT-LEBL

Flight info

Callsign TAP1034
Flight time N/A
Altitude 38000
Route ORVED DCT UREDI DCT DIPOL DCT RBO DCT PINAR DCT SEGRE DCT BRITO DCT PISUS DCT PONEN T600 CASPE
Aircraft A319/M-SDE3FGHIRWXYZ/LB1

Departure

Time 2026-04-28 13:05
Airport Lisbon Humberto Delgado Airport (LPPT)

Arrival

Time N/A
Airport Josep Tarradellas Barcelona-El Prat Airport (LEBL)
Time Latitude Longitude Altitude Speed Heading
2026-04-28 12:47 38.76530 -9.13381 345 ft 0 kts 73°
2026-04-28 12:58 38.76529 -9.13384 345 ft 3 kts 73°
2026-04-28 12:58 38.76519 -9.13415 346 ft 4 kts 52°
2026-04-28 12:58 38.76500 -9.13434 352 ft 4 kts
2026-04-28 12:58 38.76487 -9.13433 346 ft 1 kts 344°
2026-04-28 12:59 38.76485 -9.13432 352 ft 0 kts 344°
2026-04-28 13:01 38.76488 -9.13433 354 ft 1 kts 344°
2026-04-28 13:01 38.76510 -9.13441 345 ft 6 kts 344°
2026-04-28 13:01 38.76558 -9.13459 353 ft 8 kts 344°
2026-04-28 13:01 38.76613 -9.13478 346 ft 7 kts 343°
2026-04-28 13:02 38.76645 -9.13517 351 ft 6 kts 285°
2026-04-28 13:02 38.76640 -9.13570 350 ft 6 kts 258°
2026-04-28 13:02 38.76629 -9.13640 351 ft 10 kts 259°
2026-04-28 13:02 38.76614 -9.13739 353 ft 12 kts 257°
2026-04-28 13:03 38.76597 -9.13842 348 ft 12 kts 258°
2026-04-28 13:03 38.76578 -9.13948 346 ft 12 kts 259°
2026-04-28 13:03 38.76538 -9.14042 346 ft 12 kts 229°
2026-04-28 13:03 38.76497 -9.14132 353 ft 13 kts 259°
2026-04-28 13:04 38.76523 -9.14259 338 ft 18 kts 293°
2026-04-28 13:04 38.76567 -9.14391 333 ft 7 kts 293°
2026-04-28 13:04 38.76600 -9.14412 336 ft 6 kts 20°
2026-04-28 13:04 38.76651 -9.14385 335 ft 15 kts 22°
2026-04-28 13:05 38.76998 -9.14198 353 ft 91 kts 22°
2026-04-28 13:05 38.77766 -9.13788 365 ft 149 kts 22°
2026-04-28 13:05 38.78744 -9.13261 886 ft 152 kts 23°
2026-04-28 13:05 38.79726 -9.12734 1454 ft 154 kts 22°
2026-04-28 13:06 38.80765 -9.12177 1829 ft 172 kts 22°
2026-04-28 13:06 38.81910 -9.11455 2098 ft 195 kts 31°
2026-04-28 13:06 38.83142 -9.10500 2303 ft 220 kts 31°
2026-04-28 13:06 38.84522 -9.09432 2575 ft 244 kts 31°
2026-04-28 13:07 38.85958 -9.08116 2834 ft 265 kts 49°
2026-04-28 13:07 38.86935 -9.06090 3390 ft 271 kts 65°
2026-04-28 13:07 38.87775 -9.03923 4133 ft 273 kts 65°
2026-04-28 13:07 38.88621 -9.01734 5173 ft 274 kts 64°
2026-04-28 13:08 38.89468 -8.99538 6170 ft 276 kts 64°
2026-04-28 13:08 38.90325 -8.97317 7089 ft 280 kts 64°
2026-04-28 13:08 38.91197 -8.95063 7990 ft 284 kts 64°
2026-04-28 13:08 38.92083 -8.92777 8890 ft 288 kts 64°
2026-04-28 13:09 38.92982 -8.90452 9791 ft 293 kts 65°
2026-04-28 13:09 38.93909 -8.88054 10303 ft 311 kts 65°
2026-04-28 13:09 38.94904 -8.85474 10682 ft 331 kts 65°
2026-04-28 13:09 38.95939 -8.82792 11342 ft 340 kts 65°
2026-04-28 13:10 38.96997 -8.80050 12113 ft 345 kts 65°
2026-04-28 13:10 38.98068 -8.77272 12900 ft 349 kts 65°
2026-04-28 13:10 38.99150 -8.74453 13677 ft 354 kts 65°
2026-04-28 13:10 39.00242 -8.71600 14350 ft 358 kts 65°
2026-04-28 13:11 39.01349 -8.68709 15007 ft 363 kts 65°
2026-04-28 13:11 39.02468 -8.65784 15704 ft 366 kts 65°
2026-04-28 13:11 39.03596 -8.62831 16403 ft 369 kts 65°
2026-04-28 13:11 39.04735 -8.59857 17121 ft 372 kts 65°
2026-04-28 13:12 39.05883 -8.56862 17809 ft 375 kts 65°
2026-04-28 13:12 39.07039 -8.53837 18438 ft 379 kts 65°
2026-04-28 13:12 39.08207 -8.50776 19015 ft 383 kts 65°
2026-04-28 13:12 39.09383 -8.47686 19600 ft 386 kts 66°
2026-04-28 13:13 39.10569 -8.44567 20186 ft 390 kts 66°
2026-04-28 13:13 39.11769 -8.41409 20776 ft 393 kts 66°
2026-04-28 13:13 39.12976 -8.38231 21345 ft 397 kts 66°
2026-04-28 13:13 39.14195 -8.35019 21912 ft 401 kts 66°
2026-04-28 13:14 39.15427 -8.31773 22451 ft 405 kts 66°
2026-04-28 13:14 39.16667 -8.28495 23005 ft 409 kts 66°
2026-04-28 13:14 39.17901 -8.25228 23530 ft 413 kts 66°
2026-04-28 13:14 39.19163 -8.21888 23985 ft 416 kts 66°
2026-04-28 13:15 39.20436 -8.18517 24427 ft 419 kts 66°
2026-04-28 13:15 39.21712 -8.15130 24863 ft 423 kts 66°
2026-04-28 13:15 39.22999 -8.11704 25293 ft 426 kts 66°
2026-04-28 13:15 39.24297 -8.08251 25718 ft 429 kts 66°
2026-04-28 13:16 39.25601 -8.04778 26138 ft 432 kts 66°
2026-04-28 13:16 39.26909 -8.01279 26543 ft 435 kts 66°
2026-04-28 13:16 39.28231 -7.97749 26951 ft 438 kts 66°
2026-04-28 13:16 39.29563 -7.94193 27361 ft 441 kts 66°
2026-04-28 13:17 39.30901 -7.90611 27777 ft 444 kts 66°
2026-04-28 13:17 39.32248 -7.87007 28176 ft 448 kts 66°
2026-04-28 13:17 39.33605 -7.83372 28573 ft 451 kts 66°
2026-04-28 13:17 39.34969 -7.79707 28960 ft 454 kts 66°
2026-04-28 13:18 39.36340 -7.76015 29344 ft 457 kts 66°
2026-04-28 13:18 39.37716 -7.72308 29722 ft 460 kts 66°
2026-04-28 13:18 39.39105 -7.68568 30073 ft 463 kts 66°
2026-04-28 13:18 39.40486 -7.64844 30392 ft 465 kts 66°
2026-04-28 13:19 39.41886 -7.61062 30723 ft 467 kts 66°
2026-04-28 13:19 39.43290 -7.57265 31053 ft 468 kts 66°
2026-04-28 13:19 39.44693 -7.53466 31386 ft 470 kts 66°
2026-04-28 13:19 39.46101 -7.49644 31733 ft 470 kts 66°
2026-04-28 13:20 39.47505 -7.45826 32203 ft 468 kts 66°
2026-04-28 13:20 39.48899 -7.42028 32670 ft 466 kts 66°
2026-04-28 13:20 39.50290 -7.38241 33144 ft 464 kts 66°
2026-04-28 13:20 39.51675 -7.34466 33622 ft 462 kts 66°
2026-04-28 13:21 39.53036 -7.30759 34060 ft 461 kts 66°
2026-04-28 13:21 39.54406 -7.27017 34446 ft 459 kts 66°
2026-04-28 13:21 39.55771 -7.23276 34796 ft 459 kts 66°
2026-04-28 13:21 39.57137 -7.19529 35111 ft 459 kts 66°
2026-04-28 13:22 39.58503 -7.15778 35421 ft 459 kts 66°
2026-04-28 13:22 39.59864 -7.12043 35744 ft 459 kts 66°
2026-04-28 13:22 39.61224 -7.08298 36045 ft 458 kts 67°
2026-04-28 13:22 39.62579 -7.04559 36344 ft 458 kts 67°
2026-04-28 13:23 39.63935 -7.00815 36642 ft 458 kts 67°
2026-04-28 13:23 39.65275 -6.97123 36923 ft 457 kts 67°